Fort Leonard Wood, MO

9:10 PM CST on February 18, 2018 (GMT -0600)
Waynesville Regional At Forney Field

Weather History for KTBN - February, 2013

Change the Weather History Date:

Monday, February 25, 2013

  Actual Average Record
Temperature  
Mean Temperature 39 °F -  
Max Temperature 48 °F 46 °F 71 °F (2009)
Min Temperature 30 °F 31 °F 6 °F (2003)
Degree Days  
Heating Degree Days 26    
Moisture  
Dew Point 31 °F    
Average Humidity 84    
Maximum Humidity 100    
Minimum Humidity 36    
Precipitation  
Precipitation 1.05 in - - ()
Sea Level Pressure  
Sea Level Pressure 29.71 in    
Wind  
Wind Speed 11 mph (NE)    
Max Wind Speed 21 mph    
Max Gust Speed 30 mph    
Visibility 7 miles    
Events Rain , Snow , Thunderstorm    
Averages and records for this station are not official NWS values.
T = Trace of Precipitation, MM = Missing Value Source: NWS Daily Summary

Daily Weather History Graph

Daily Weather History Graph

Search for Another Location

Airport or City:

Trip Planner

Search our weather history database for the weather conditions in past years. The results will help you decide how hot, cold, wet, or windy it might be!

Date:

Astronomy

Feb. 25, 2013 Rise Set
Actual Time 6:45 AM CST 5:58 PM CST
Civil Twilight 6:18 AM CST 6:24 PM CST
Nautical Twilight 5:48 AM CST 6:55 PM CST
Astronomical Twilight 5:18 AM CST 7:25 PM CST
Moon 6:10 PM CST (2/25) 6:16 AM CST (2/25)
Length of Visible Light 12h 06m
Length of Day
11h 13m
Full, 100% of the Moon is Illuminated
Feb 25
Full
Feb 25
Full
Mar 4
Last Quarter
Mar 11
New
Mar 19
First Quarter

Hourly Weather History & Observations

Time (CST) Temp. Windchill Dew Point Humidity Pressure Visibility Wind Dir Wind Speed Gust Speed Precip Events Conditions
12:55 AM 35.2 °F 30.3 °F 27.7 °F 74% 29.97 in 10.0 mi ENE 5.8 mph - N/A   Scattered Clouds
1:55 AM 34.0 °F 28.0 °F 27.1 °F 76% 29.97 in 10.0 mi ENE 6.9 mph - N/A   Clear
2:55 AM 32.9 °F 28.5 °F 26.8 °F 78% 29.96 in 10.0 mi ENE 4.6 mph - N/A   Clear
3:55 AM 31.8 °F 26.2 °F 26.4 °F 80% 29.96 in 10.0 mi East 5.8 mph - N/A   Clear
4:55 AM 31.1 °F 23.7 °F 26.6 °F 83% 29.93 in 10.0 mi ENE 8.1 mph - N/A   Clear
5:55 AM 30.9 °F 25.2 °F 26.2 °F 83% 29.94 in 10.0 mi ENE 5.8 mph - N/A   Clear
6:55 AM 30.4 °F 24.5 °F 26.1 °F 84% 29.94 in 10.0 mi ENE 5.8 mph - N/A   Partly Cloudy
7:55 AM 32.7 °F 25.7 °F 26.6 °F 78% 29.92 in 10.0 mi East 8.1 mph - N/A   Clear
8:55 AM 36.9 °F 30.1 °F 27.3 °F 68% 29.92 in 10.0 mi East 9.2 mph - N/A   Overcast
9:55 AM 41.0 °F 35.2 °F 27.7 °F 59% 29.89 in 10.0 mi East 9.2 mph - N/A   Overcast
11:55 AM 47.7 °F - 22.8 °F 38% 29.83 in 10.0 mi East 16.1 mph 23.0 mph N/A   Mostly Cloudy
12:55 PM 48.4 °F - 22.6 °F 36% 29.77 in 10.0 mi ENE 13.8 mph 23.0 mph N/A   Overcast
1:55 PM 47.5 °F - 25.9 °F 43% 29.74 in 10.0 mi NE 10.4 mph 19.6 mph N/A   Overcast
2:55 PM 45.5 °F 38.9 °F 26.4 °F 47% 29.73 in 10.0 mi NE 15.0 mph 19.6 mph N/A   Overcast
3:38 PM 44.6 °F 38.1 °F 26.6 °F 49% 29.70 in 10.0 mi NE 13.8 mph 21.9 mph N/A   Light Drizzle
3:55 PM 43.9 °F 37.5 °F 28.0 °F 54% 29.69 in 10.0 mi NNE 12.7 mph 18.4 mph 0.00 in Rain Light Rain
4:50 PM 39.2 °F 32.0 °F 32.0 °F 75% 29.64 in 10.0 mi North 11.5 mph - N/A Rain , Thunderstorm Light Rain
4:55 PM 39.0 °F 32.3 °F 31.8 °F 75% 29.70 in 10.0 mi North 10.4 mph - 0.01 in Rain , Thunderstorm Light Rain
5:03 PM 39.2 °F 32.0 °F 32.0 °F 75% 29.71 in 10.0 mi NNE 11.5 mph - N/A Rain , Thunderstorm Light Thunderstorms and Rain
5:29 PM 37.4 °F 28.9 °F 32.0 °F 81% 29.73 in 9.0 mi North 13.8 mph 19.6 mph N/A Rain Light Rain
5:47 PM 35.6 °F 26.2 °F 33.8 °F 93% 29.68 in 7.0 mi NNE 15.0 mph 24.2 mph N/A Snow Light Snow
5:55 PM 35.6 °F 25.5 °F 33.3 °F 91% 29.68 in 6.0 mi NNE 17.3 mph 26.5 mph 0.11 in Snow Light Snow
6:33 PM 35.6 °F 24.8 °F 33.8 °F 93% 29.68 in 6.0 mi NE 19.6 mph 29.9 mph N/A Rain Rain
6:43 PM 35.6 °F 25.5 °F 33.8 °F 93% 29.68 in 6.0 mi NE 17.3 mph 26.5 mph N/A Rain Rain
6:55 PM 34.5 °F 23.1 °F 34.2 °F 99% 29.67 in 8.0 mi NE 20.7 mph 27.6 mph 0.17 in Rain Light Rain
7:18 PM 33.8 °F 24.8 °F 33.8 °F 100% 29.68 in 6.0 mi NNE 12.7 mph 27.6 mph N/A Rain Rain
7:55 PM 34.3 °F 26.5 °F 34.2 °F 99% 29.69 in 6.0 mi NE 10.4 mph 25.3 mph 0.07 in Rain Rain
8:10 PM 33.8 °F 25.3 °F 33.8 °F 100% 29.67 in 5.0 mi NE 11.5 mph 18.4 mph N/A Rain Rain
8:24 PM 33.8 °F 23.9 °F 33.8 °F 100% 29.66 in 2.5 mi NE 15.0 mph 20.7 mph N/A Snow Light Snow
8:31 PM 33.8 °F 25.3 °F 33.8 °F 100% 29.65 in 3.0 mi NE 11.5 mph 20.7 mph N/A Snow Light Snow
8:32 PM 33.8 °F 25.3 °F 33.8 °F 100% 29.65 in 2.5 mi NE 11.5 mph 20.7 mph N/A Snow Light Snow
8:41 PM 33.8 °F 24.8 °F 32.0 °F 93% 29.64 in 2.0 mi NE 12.7 mph 18.4 mph N/A Snow Light Snow
8:52 PM 33.8 °F 23.5 °F 32.0 °F 93% 29.63 in 2.0 mi NE 16.1 mph 21.9 mph N/A Snow , Thunderstorm Light Thunderstorms and Snow
8:55 PM 32.9 °F 23.2 °F 32.7 °F 99% 29.63 in 2.5 mi NE 13.8 mph 20.7 mph 0.19 in Snow , Thunderstorm Light Thunderstorms and Snow
8:57 PM 33.8 °F 24.8 °F 32.0 °F 93% 29.63 in 3.0 mi NE 12.7 mph 20.7 mph N/A Snow , Thunderstorm Light Thunderstorms and Snow
9:07 PM 33.8 °F 24.3 °F 32.0 °F 93% 29.62 in 4.0 mi NE 13.8 mph 20.7 mph N/A   Overcast
9:08 PM 33.8 °F 24.8 °F 32.0 °F 93% 29.62 in 4.0 mi NE 12.7 mph 20.7 mph N/A   Overcast
9:46 PM 33.8 °F 22.8 °F 33.8 °F 100% 29.59 in 5.0 mi NE 18.4 mph 27.6 mph N/A Rain Rain
9:55 PM 34.0 °F 24.2 °F 33.8 °F 99% 29.57 in 5.0 mi NE 15.0 mph 24.2 mph 0.15 in Rain Rain
10:10 PM 33.8 °F 22.8 °F 33.8 °F 100% 29.56 in 5.0 mi NE 18.4 mph 28.8 mph N/A Rain Rain
10:55 PM 34.3 °F 24.2 °F 34.2 °F 99% 29.54 in 5.0 mi NE 16.1 mph 27.6 mph 0.12 in Rain Rain
10:58 PM 33.8 °F 23.5 °F 33.8 °F 100% 29.53 in 4.0 mi NE 16.1 mph 27.6 mph N/A Rain Rain
11:17 PM 33.8 °F 23.9 °F 33.8 °F 100% 29.50 in 5.0 mi NE 15.0 mph 24.2 mph N/A Rain Rain
11:32 PM 33.8 °F 23.9 °F 33.8 °F 100% 29.50 in 5.0 mi NE 15.0 mph 23.0 mph N/A Rain Rain
11:55 PM 34.0 °F 24.2 °F 33.8 °F 99% 29.48 in 6.0 mi NE 15.0 mph 28.8 mph 0.23 in Rain Rain